Location: Proctor
(47.8934°N, 114.3048°W)
Time: 12:03:10
(UTC+00:00)

ISS - Visible Passes

Search period start: 20 January 2022 00:00
Search period end: 30 January 2022 00:00
Orbit: 413 x 422 km, 51.6° (Epoch: 20 January)

Date Brightness Start Highest point End Pass type
(mag) Time Alt. Az. Time Alt. Az. Time Alt. Az.
20 Jan -2.6 01:45:45 10° SSW 01:48:39 28° SE 01:49:25 25° ESE visible
20 Jan -0.5 03:21:55 10° WSW 03:22:22 13° WSW 03:22:22 13° WSW visible
21 Jan -1.9 00:58:26 10° S 01:00:50 19° SE 01:03:14 10° E visible
21 Jan -3.0 02:33:54 10° WSW 02:36:30 51° WSW 02:36:30 51° WSW visible
22 Jan -3.7 01:45:58 10° SW 01:49:17 63° SSE 01:50:35 32° E visible
22 Jan -0.5 03:22:55 10° W 03:23:31 14° W 03:23:31 14° W visible
23 Jan -3.0 00:58:10 10° SW 01:01:20 41° SSE 01:04:31 10° ENE visible
23 Jan -2.9 02:34:47 10° W 02:37:33 47° NW 02:37:33 47° NW visible
24 Jan -3.7 01:46:42 10° WSW 01:50:01 69° NNW 01:51:32 29° ENE visible
24 Jan -0.6 03:23:54 10° WNW 03:24:28 14° WNW 03:24:28 14° WNW visible
25 Jan -3.8 00:58:39 10° WSW 01:01:59 88° SSE 01:05:20 10° ENE visible
25 Jan -2.7 02:35:46 10° WNW 02:38:25 38° NNW 02:38:25 38° NNW visible
26 Jan -3.2 01:47:37 10° W 01:50:51 46° N 01:52:21 26° NE visible
26 Jan -0.6 03:24:44 10° WNW 03:25:17 14° WNW 03:25:17 14° WNW visible
27 Jan -3.4 00:59:27 10° W 01:02:45 55° NNW 01:06:02 10° ENE visible
27 Jan -2.7 02:36:39 10° WNW 02:39:13 37° NNW 02:39:13 37° NNW visible
28 Jan -3.1 01:48:31 10° WNW 01:51:43 41° N 01:53:09 26° NE visible
28 Jan -0.7 03:25:25 10° WNW 03:26:05 15° WNW 03:26:05 15° WNW visible
29 Jan -3.0 02:37:23 10° WNW 02:40:03 46° NNW 02:40:03 46° NNW visible
